Wind_Speed
75 75 75 76 76 76 77 77 77 78 78 79 79 80 81 82 83 84 85 86 87 88 89 89 90 91 91 92 92 93 94 94 94 95 95 96 97 97 98 99 99 99 99 100 100 100 100 100 100 99 99 99 99 99 98 99 99 99 99 99 100 100 102 102 101 101 103 106 104 100 100 103 103 103 103 104 105 105 104 104 105 105 103 100 97 95 98 99
75 75 76 76 76 76 77 77 78 78 78 79 79 79 80 81 81 82 83 84 85 86 87 88 88 89 90 90 91 92 92 93 93 94 94 95 96 96 96 97 97 97 96 96 96 96 95 95 95 94 93 93 93 93 93 93 93 94 94 93 94 96 97 96 95 96 98 100 98 97 98 100 102 101 101 103 104 105 104 104 105 105 102 99 96 90 91 96
74 75 76 76 76 76 77 77 78 78 79 79 79 79 79 79 79 80 81 81 82 83 84 85 85 86 87 88 88 89 90 90 90 90 91 91 91 92 92 91 91 91 90 90 89 89 89 89 88 88 88 88 88 88 88 88 88 89 89 89 92 93 92 91 91 93 94 95 94 94 96 98 99 98 98 100 101 102 102 102 104 104 101 97 96 94 96 98
72 74 75 76 76 76 77 77 78 78 78 78 78 78 78 78 78 78 79 79 79 80 80 81 81 82 82 83 83 84 84 84 84 85 85 85 85 85 85 85 85 85 84 84 84 84 84 84 85 85 85 85 85 85 84 84 85 85 86 87 89 88 88 88 88 89 90 91 91 92 94 95 95 94 95 95 96 98 99 99 100 100 96 94 94 94 93 91
70 72 73 74 75 76 76 77 77 77 77 77 77 77 77 77 77 77 78 78 78 78 79 79 79 79 80 80 80 80 80 80 80 80 81 81 81 81 81 82 82 82 82 82 82 82 82 83 83 83 83 83 82 82 81 82 83 83 84 86 86 85 85 86 85 86 88 89 90 91 92 92 91 91 91 92 91 93 95 95 97 96 91 88 89 87 84 80
67 69 71 72 73 74 75 76 76 76 76 76 76 76 76 76 76 76 77 77 77 77 78 78 78 78 78 78 78 78 78 77 78 78 79 79 79 79 80 80 80 80 80 79 79 79 79 80 80 80 80 80 79 80 78 80 81 81 82 83 82 82 83 83 83 85 87 87 88 88 89 89 89 88 88 90 89 89 91 92 93 91 85 83 85 84 80 76
63 65 67 69 70 71 72 73 74 74 74 74 74 74 75 75 75 75 75 76 76 76 76 76 76 76 76 76 76 76 75 75 76 76 76 76 76 76 77 77 76 76 75 75 75 75 75 75 75 75 75 75 75 76 76 78 79 79 80 80 80 80 81 81 83 84 84 85 85 86 87 87 87 86 87 89 87 86 88 88 87 83 81 80 78 77 69 64
60 62 63 65 66 68 69 70 71 71 71 72 72 72 73 73 73 73 73 74 74 74 74 74 74 74 74 74 73 73 73 72 73 73 73 73 73 73 73 72 72 72 71 71 70 70 69 69 69 69 69 69 71 71 72 74 75 75 75 76 77 77 78 79 80 81 81 82 83 84 84 84 84 84 86 87 85 85 85 85 82 78 78 77 75 72 63 60
57 58 60 61 62 63 65 66 67 67 68 68 69 69 70 70 70 70 71 71 72 72 72 72 72 71 71 71 70 70 70 69 69 69 69 69 69 68 68 67 67 66 66 65 65 64 64 63 63 63 63 64 65 66 68 69 69 70 71 71 72 73 74 75 76 77 77 78 80 81 81 81 82 83 84 84 83 83 82 82 80 77 77 77 77 73 69 72
53 54 55 56 58 59 60 61 61 62 63 64 64 65 65 66 66 66 67 67 68 68 68 68 68 68 67 67 66 65 65 64 63 63 62 62 62 61 60 60 60 59 59 59 59 59 58 59 59 60 60 61 62 62 64 64 65 67 67 67 68 68 69 71 72 73 73 75 76 77 78 78 79 81 81 80 81 81 80 80 79 78 78 77 74 67 69 77
49 50 51 52 53 54 55 55 56 57 58 59 59 60 60 61 61 61 62 62 63 63 63 63 63 62 61 61 60 59 59 57 56 56 55 55 54 54 54 54 54 54 54 55 55 56 56 56 57 58 58 59 60 60 61 61 62 62 62 62 63 62 63 65 66 67 68 69 70 71 72 74 76 76 77 78 78 78 79 78 76 76 77 76 71 67 69 74
47 47 48 49 49 50 51 51 52 53 54 54 54 55 55 55 55 56 56 56 56 56 56 56 56 55 55 54 53 53 52 51 51 51 50 50 51 51 51 52 52 52 53 53 54 54 55 55 55 55 55 56 56 55 56 56 56 56 55 56 55 55 56 57 58 59 60 60 62 64 66 68 70 70 72 74 73 73 75 74 73 73 71 68 67 66 68 72
46 46 46 46 47 47 48 48 49 49 50 50 50 50 50 50 50 50 50 51 50 50 50 50 50 50 50 49 49 49 49 48 48 49 49 50 50 51 51 52 52 52 52 52 53 53 52 52 52 52 51 51 50 49 49 49 48 48 48 49 48 49 49 49 50 51 52 52 54 56 58 61 63 63 65 65 65 66 68 67 68 68 64 62 63 60 58 64
47 46 46 45 45 45 46 46 47 47 47 47 47 46 46 46 46 46 47 47 47 47 47 47 47 48 47 47 48 48 48 48 49 49 50 51 51 52 51 51 51 51 50 50 50 50 49 49 48 47 46 45 44 43 43 42 42 41 42 43 42 43 42 41 43 45 46 45 46 49 51 56 57 55 57 57 57 59 60 61 61 61 60 58 59 55 52 58
47 47 47 46 46 45 45 46 46 46 46 45 45 44 44 44 45 45 45 46 46 46 46 46 47 47 47 47 48 48 49 49 50 50 51 51 51 51 50 49 49 48 48 47 47 46 45 44 43 42 41 40 39 38 38 37 37 36 38 38 36 39 38 36 39 41 41 39 41 45 47 52 53 48 49 50 49 52 53 54 54 54 54 52 52 52 55 58
49 48 48 47 46 46 45 46 46 45 45 44 44 44 44 44 44 44 45 46 46 46 46 46 47 47 47 48 49 49 49 50 50 50 49 49 49 48 48 47 46 45 44 44 43 42 41 41 40 39 39 38 37 36 36 35 35 34 35 34 34 38 35 31 36 39 36 36 39 42 42 48 50 42 43 46 44 46 48 48 48 47 47 46 46 45 48 52
50 50 49 48 47 46 46 46 46 46 45 44 44 44 44 44 44 45 45 46 46 46 47 47 48 47 48 49 49 49 49 49 49 48 47 47 47 46 45 44 43 42 42 41 41 40 39 39 39 38 38 37 37 37 36 36 35 35 35 33 34 38 33 29 35 35 33 35 38 39 39 45 48 38 37 43 40 40 43 44 43 42 41 41 41 41 43 47
51 51 50 49 48 48 47 47 47 46 45 45 45 45 45 45 45 45 46 46 47 47 47 48 48 47 47 48 48 48 48 47 47 46 45 45 44 44 43 42 42 41 41 40 40 39 39 39 39 39 39 38 38 38 38 38 37 37 36 36 36 37 34 32 32 32 33 36 36 36 38 43 45 36 34 39 38 37 39 41 40 39 38 38 39 39 38 40
51 51 51 50 50 49 48 48 48 47 46 46 46 46 46 46 46 46 46 47 47 47 47 47 47 46 47 47 46 46 46 45 45 44 44 43 42 42 41 41 41 41 40 40 40 40 40 40 40 40 39 39 40 40 40 40 40 39 39 39 39 38 38 36 30 30 35 36 35 35 37 40 42 37 34 37 38 36 37 39 40 39 37 38 38 37 35 35
50 50 50 50 50 50 49 49 48 48 47 47 47 47 47 47 47 46 46 46 46 47 46 46 46 45 45 45 45 45 44 44 43 42 42 42 42 41 41 41 41 41 41 41 41 41 41 42 41 40 41 42 42 42 42 43 42 42 41 41 41 40 42 39 31 33 37 37 37 35 35 39 42 40 36 38 39 38 37 38 41 41 39 39 38 37 36 33
48 48 49 49 49 49 49 49 48 48 48 47 47 47 47 47 46 46 46 45 45 45 45 45 44 44 43 43 43 43 43 43 42 42 42 42 42 41 41 41 41 41 41 41 41 41 42 42 40 41 43 43 43 43 43 44 43 43 43 42 42 43 45 41 36 38 40 39 40 37 35 40 43 42 40 40 41 40 38 39 42 43 42 42 41 40 38 34
45 46 47 47 47 48 48 47 47 47 47 47 46 46 46 45 45 45 44 44 44 44 43 43 43 42 42 42 43 43 42 42 42 42 42 42 42 41 42 42 41 41 42 42 41 42 43 40 40 43 44 44 44 44 44 44 44 44 44 44 44 45 45 44 42 42 41 41 43 40 38 43 44 44 43 43 44 43 41 42 44 44 44 44 44 43 42 38
42 43 44 44 45 45 45 45 45 45 45 45 45 44 44 43 43 43 42 42 42 42 42 42 41 41 41 41 42 43 42 43 43 42 42 42 42 42 43 42 42 42 42 42 41 42 42 38 40 43 43 43 44 44 44 44 44 44 44 44 46 46 46 47 46 42 43 45 45 42 42 46 47 46 45 45 46 46 44 45 46 45 46 46 46 46 45 43
40 40 40 41 42 42 43 43 43 43 43 43 43 42 41 41 41 41 41 41 40 40 41 41 40 40 40 41 42 42 42 42 42 42 42 42 42 43 42 42 43 43 42 42 42 42 39 37 41 42 41 43 44 44 44 43 43 43 44 44 45 45 46 47 45 43 45 47 47 45 45 48 49 48 47 48 49 49 48 48 47 47 48 48 48 48 48 48
37 38 38 39 39 40 40 40 40 41 42 42 41 40 40 40 40 40 40 41 40 40 40 40 39 39 40 40 41 41 41 42 41 41 42 42 42 42 42 42 43 42 42 42 42 41 37 37 41 40 40 43 43 43 42 41 41 41 43 43 43 43 44 45 44 44 46 47 47 48 46 49 50 49 49 51 52 51 50 50 49 49 50 51 51 51 50 50
37 37 38 38 38 39 39 39 40 41 41 41 40 40 40 40 41 41 41 42 41 40 40 39 39 39 39 39 40 41 41 41 41 41 42 42 41 41 41 42 42 41 41 42 43 40 36 38 40 39 40 41 41 41 40 40 39 39 41 41 40 40 41 42 42 43 45 46 46 46 47 49 49 49 51 51 52 52 51 51 51 50 51 52 52 52 52 52
37 38 39 39 39 39 39 40 40 41 41 41 41 41 41 41 42 42 42 43 41 40 40 39 39 39 39 40 40 41 41 41 41 40 41 41 41 41 40 41 41 40 40 42 42 38 36 38 39 38 39 40 40 39 38 39 38 37 40 40 39 39 39 40 41 41 43 45 43 44 46 46 46 48 50 49 51 53 51 51 53 52 52 52 53 52 52 52
39 39 40 40 40 40 41 41 41 41 42 42 41 41 41 42 43 43 44 43 41 41 40 39 40 40 39 40 41 41 41 41 40 40 41 40 40 40 39 39 39 38 40 41 40 38 37 38 38 38 39 39 40 38 37 40 39 37 40 41 39 39 38 39 41 41 43 44 41 41 44 43 43 46 48 47 48 50 50 49 51 51 50 50 50 50 51 52
40 41 42 42 42 42 42 42 42 43 43 43 42 42 42 42 43 44 45 43 42 42 41 40 40 40 40 41 41 41 41 41 40 40 40 40 39 40 39 38 39 38 40 41 40 39 38 38 38 39 40 40 39 37 38 41 40 38 41 41 41 41 41 41 42 43 45 43 39 41 43 42 42 45 47 47 46 47 47 46 46 46 47 46 46 47 49 51
42 43 43 44 44 44 44 44 44 44 45 44 43 43 43 43 44 45 45 43 43 44 42 41 41 41 41 42 41 42 42 41 40 40 40 40 40 40 39 39 40 40 40 41 42 41 40 39 39 39 41 41 40 39 40 42 41 41 41 42 43 45 45 45 44 45 46 44 41 44 46 44 44 45 48 50 46 46 47 45 44 44 44 44 43 45 48 49
45 45 45 45 45 45 45 45 45 45 46 46 45 45 44 45 46 46 45 45 45 45 44 42 42 43 43 43 43 43 42 42 42 41 41 41 41 41 41 41 41 41 42 43 45 43 41 41 40 41 42 42 41 41 42 43 44 44 43 43 46 48 48 47 46 46 47 47 46 47 48 46 45 48 51 52 49 48 49 47 45 45 44 45 44 44 47 48
48 48 47 47 47 46 46 46 47 46 47 48 47 47 47 47 47 47 47 47 47 47 45 45 45 45 44 45 45 44 43 44 44 43 43 43 42 43 43 43 43 43 44 45 46 44 43 43 42 43 44 44 43 43 43 45 46 46 45 46 48 51 51 48 48 49 49 50 50 50 50 48 47 50 52 53 53 52 52 50 48 47 46 47 47 47 48 49
52 52 51 50 49 49 48 48 48 48 48 49 49 49 49 49 48 49 50 49 49 49 48 47 47 47 46 47 48 47 46 47 46 44 45 45 44 45 45 45 45 45 46 48 48 45 45 46 46 45 46 46 46 45 45 47 48 46 47 49 50 53 54 50 49 52 52 53 52 51 50 48 49 52 52 54 55 55 54 53 51 51 50 50 50 51 51 51
52 53 54 53 53 52 52 51 51 50 50 50 51 51 51 51 51 51 53 52 52 52 50 49 50 49 49 50 51 49 47 48 48 47 47 46 46 48 48 48 48 48 48 49 49 48 49 50 50 49 49 49 49 48 48 50 50 49 49 51 52 54 55 52 52 54 54 55 53 50 50 50 50 52 53 55 57 57 56 55 54 53 53 53 53 54 55 54
52 53 54 55 56 56 56 56 55 54 53 53 53 53 53 53 53 53 54 55 55 54 52 52 52 52 52 53 53 51 49 50 51 49 49 49 49 51 51 51 51 50 49 50 51 51 52 53 53 52 52 51 51 52 52 52 53 53 52 53 54 56 56 55 54 55 56 56 54 51 51 52 52 53 55 57 57 58 57 56 55 55 55 56 56 57 58 58
47 51 53 55 56 57 58 58 59 58 57 57 56 56 56 55 55 55 56 56 56 55 54 54 53 53 55 56 55 53 51 52 53 51 51 52 52 53 54 54 53 52 51 52 53 54 55 55 55 54 54 54 54 55 55 55 55 56 55 55 56 58 58 57 55 55 56 56 54 53 53 53 55 56 57 59 58 58 58 57 57 57 57 57 58 59 59 60
39 43 47 51 54 56 58 59 60 60 60 60 60 59 59 58 58 58 57 58 57 56 56 56 55 55 56 57 56 54 52 53 54 53 54 55 54 54 55 55 55 54 53 54 54 55 56 57 57 56 55 56 57 57 56 56 56 56 56 57 58 58 58 57 55 55 56 55 54 54 53 54 57 59 59 60 59 58 58 58 57 58 59 60 60 60 61 61
34 36 38 42 47 51 54 57 59 60 60 61 61 62 62 62 61 60 59 60 59 58 57 57 58 58 57 58 58 57 54 55 56 55 56 57 56 56 56 56 55 55 55 55 56 56 57 58 58 57 56 57 58 56 54 54 54 54 54 56 57 57 57 56 55 55 56 55 53 54 54 54 58 61 61 60 59 59 59 57 57 59 61 62 62 61 62 63
33 34 34 37 40 42 46 50 54 57 59 60 61 62 62 62 62 62 62 62 61 60 60 59 59 60 59 59 60 59 57 57 57 57 58 59 57 57 57 56 56 56 56 57 57 57 58 58 57 57 56 56 55 53 51 51 51 52 53 53 54 55 55 55 55 55 55 55 53 53 54 55 58 62 61 59 59 59 59 58 58 59 61 62 62 62 63 64
33 33 32 35 37 37 39 41 44 49 53 57 60 61 62 62 62 62 62 62 62 62 62 61 60 61 61 61 61 60 59 59 59 59 60 60 59 59 58 56 57 57 57 58 58 57 57 56 55 55 54 53 53 50 48 49 50 51 51 51 52 53 54 53 53 54 54 54 55 54 52 54 58 61 60 60 60 58 58 59 59 59 60 61 61 61 62 63
35 33 32 35 36 34 36 37 38 40 44 49 55 57 59 61 61 61 61 61 62 62 62 61 61 61 61 61 61 61 61 61 61 60 61 62 61 60 58 57 58 58 58 59 58 56 55 55 54 54 52 51 52 50 48 48 50 50 50 49 50 52 53 52 52 54 55 55 55 54 52 54 57 58 59 61 61 58 57 59 58 58 59 60 59 58 60 62
35 33 34 38 36 33 34 36 36 36 39 42 46 48 51 55 57 58 59 61 61 62 61 61 61 61 60 60 61 61 60 60 61 61 61 62 61 58 56 58 58 57 57 58 57 54 54 54 53 53 52 51 53 51 49 49 50 50 49 50 51 52 52 52 53 54 55 55 55 54 54 56 56 56 58 60 60 58 56 57 57 56 56 58 57 56 57 59
36 34 35 38 38 36 36 35 34 36 39 39 38 40 44 47 50 53 55 58 59 60 61 61 61 61 61 61 61 62 61 61 61 61 61 62 60 56 56 57 56 56 56 56 55 54 54 55 53 53 52 52 53 52 51 51 53 52 50 50 52 52 53 53 54 55 55 54 56 56 56 57 56 55 58 59 59 57 55 56 56 55 55 56 55 55 56 56
39 36 36 38 39 38 38 37 35 37 38 37 36 38 39 40 43 47 50 53 55 56 58 59 60 60 61 61 62 63 62 61 62 62 62 63 60 57 58 58 57 57 56 55 56 54 54 56 54 53 53 52 53 53 53 54 55 53 51 52 53 53 54 55 55 57 56 54 57 58 56 58 57 54 55 57 56 56 56 55 56 56 55 55 53 53 55 55
41 39 38 39 39 39 39 39 38 39 39 38 38 38 37 38 39 41 43 46 49 51 53 55 56 57 59 59 60 62 61 61 63 63 63 64 61 58 59 60 59 58 57 57 58 56 55 56 56 54 54 53 53 55 55 56 57 54 52 53 54 54 56 57 57 58 56 55 58 57 54 57 58 54 54 55 55 55 55 54 55 55 55 54 53 52 52 53
43 42 41 41 41 40 40 40 41 42 41 40 39 37 37 38 39 39 40 41 43 45 48 50 51 53 55 55 56 58 58 58 60 60 60 63 62 59 59 61 61 59 58 59 59 58 57 57 57 55 55 54 55 56 57 58 58 55 54 55 56 56 56 58 58 57 56 56 57 56 55 57 59 57 55 54 54 55 55 54 55 55 53 52 53 52 52 54
44 44 44 44 43 42 42 42 43 43 42 42 42 40 38 39 39 39 40 39 40 42 43 44 46 48 50 51 52 54 54 55 56 57 56 59 60 57 57 61 61 59 59 60 59 59 58 57 57 57 57 56 56 57 58 59 59 57 57 57 57 57 57 59 59 57 57 59 55 54 58 58 57 58 57 56 56 56 55 55 56 56 54 53 54 54 53 54
47 47 46 46 46 44 44 45 46 45 44 44 44 42 42 42 40 40 40 40 40 42 42 42 43 44 45 47 48 49 51 51 52 53 53 55 57 54 54 57 58 56 57 58 58 58 58 58 58 59 58 57 57 58 59 60 60 60 59 58 58 58 57 58 59 57 58 60 56 55 60 59 55 57 59 59 59 58 56 56 57 58 57 55 56 56 55 55
50 49 49 49 48 47 47 48 48 47 46 46 45 44 44 44 43 43 42 42 41 42 42 42 43 44 44 45 46 46 47 47 47 48 50 51 53 52 52 54 55 54 55 56 56 56 57 58 58 59 59 58 58 59 60 61 62 62 60 58 58 59 57 57 57 57 59 62 59 58 60 57 55 58 59 60 61 60 59 59 59 59 59 58 58 58 58 57
52 52 52 51 51 50 50 51 50 50 49 48 47 46 46 46 46 45 44 45 44 43 43 43 43 44 44 45 46 45 45 46 46 46 47 49 50 49 49 50 52 51 52 55 55 55 56 58 58 59 59 57 58 60 61 62 63 62 58 57 57 58 58 57 57 57 60 63 62 61 58 54 56 60 60 61 62 62 61 61 62 61 61 61 59 59 60 60
54 53 53 53 53 52 53 53 53 53 52 50 49 49 49 49 48 47 47 47 46 45 46 46 45 45 46 46 44 44 45 47 46 46 47 48 49 48 48 48 50 49 50 53 54 53 55 56 57 58 57 55 57 60 60 61 62 58 55 55 57 58 58 58 58 58 60 62 62 61 57 53 56 60 61 61 63 63 63 63 64 65 64 64 63 62 62 62
53 54 54 54 54 54 54 55 55 55 53 52 52 52 51 51 50 49 50 50 48 47 48 48 47 47 48 47 44 45 47 47 47 47 47 48 49 49 48 49 50 50 50 52 52 52 54 55 55 57 55 52 56 59 59 60 57 53 54 56 58 59 58 58 58 59 60 62 61 59 56 56 59 61 61 62 64 66 66 66 67 69 68 67 66 66 66 66
Wind_Direction
246 246 246 246 246 246 246 246 246 246 246 247 247 247 247 248 248 248 248 249 249 249 250 250 250 250 251 251 252 252 252 253 253 254 254 255 255 256 256 257 257 258 258 259 259 260 260 261 261 261 261 261 261 261 261 261 261 261 261 261 261 261 261 261 262 262 263 263 264 263 263 263 263 263 264 264 264 265 265 265 266 266 267 268 269 270 270 270
247 247 247 247 247 247 247 247 247 247 247 247 248 248 248 249 249 249 250 250 251 251 251 251 252 252 252 252 253 253 254 254 255 255 256 256 257 257 258 259 259 259 260 260 261 261 261 261 261 261 261 261 261 261 261 261 261 261 260 260 260 260 260 261 261 261 261 262 262 262 261 262 262 262 263 264 264 265 265 265 266 266 267 267 268 268 269 270
247 248 248 248 248 248 248 248 248 248 248 248 249 249 249 250 250 250 251 251 252 252 253 253 253 254 254 254 254 255 255 255 256 257 257 258 258 259 260 260 260 260 261 261 261 261 261 261 261 261 261 261 261 261 261 260 260 260 260 259 259 259 260 260 259 260 260 261 261 260 260 260 261 261 262 263 264 265 265 265 265 266 267 267 267 267 269 270
248 248 248 248 249 249 249 249 249 249 249 250 250 250 251 251 251 252 252 252 253 253 254 254 255 255 255 255 256 256 256 257 257 258 258 259 259 260 260 261 261 261 261 261 262 262 262 262 262 262 262 261 261 261 261 261 260 259 259 259 259 259 259 259 259 259 259 259 259 259 259 260 261 261 261 262 263 264 264 264 265 265 266 267 268 269 270 271
248 249 249 249 249 250 250 250 251 251 251 251 251 252 252 252 253 253 253 254 254 254 255 255 256 256 256 257 257 257 257 258 258 259 259 260 260 260 261 261 262 262 262 263 263 263 263 263 263 263 262 262 262 261 261 261 260 260 259 259 259 259 259 259 259 259 259 259 259 259 260 260 261 260 261 261 261 262 263 264 264 265 266 267 268 268 268 270
249 249 249 250 250 250 251 251 252 252 252 253 253 253 253 254 254 254 254 255 255 256 256 256 257 257 257 258 258 258 259 259 259 260 260 260 261 261 262 262 262 263 263 263 263 263 263 263 263 263 263 262 262 262 262 261 261 261 260 260 261 260 260 260 259 259 259 259 260 260 260 260 260 260 260 260 260 261 262 263 264 266 266 266 266 266 267 269
250 250 250 251 251 251 251 252 252 253 253 254 254 254 255 255 255 255 255 256 256 256 257 257 258 258 258 259 259 259 259 260 260 260 261 261 261 262 262 262 263 263 263 263 263 263 263 263 263 263 263 263 263 262 262 262 262 262 262 262 262 261 261 260 260 260 260 260 260 260 260 260 260 260 260 259 259 260 261 263 264 265 265 265 265 266 268 268
251 251 251 251 251 252 252 252 253 253 254 254 255 255 255 256 256 256 256 257 257 258 258 259 259 259 259 260 260 260 260 260 261 261 261 262 262 262 262 262 262 263 263 263 263 263 263 263 263 263 264 264 263 263 263 263 263 263 263 262 262 262 261 261 261 261 260 260 260 260 260 260 260 260 259 260 260 260 260 262 263 263 264 264 263 264 265 259
252 251 251 252 252 252 252 253 253 254 254 255 255 255 256 256 257 257 257 258 258 259 259 259 260 260 260 260 261 261 261 261 261 261 262 262 262 262 262 262 262 262 262 262 262 263 263 263 264 264 264 265 265 265 265 265 265 265 264 263 263 263 262 262 261 261 261 260 260 260 260 260 260 260 260 260 260 260 260 260 261 261 261 262 263 264 262 257
252 252 252 252 252 253 253 253 254 254 255 255 255 256 256 257 257 258 258 258 259 259 259 260 260 260 261 261 261 261 261 261 261 261 260 260 260 260 260 260 260 261 261 261 262 263 263 264 265 265 266 266 266 266 267 267 267 266 266 265 264 264 263 262 262 261 261 261 261 261 261 260 260 260 260 260 260 260 260 260 260 261 260 261 262 263 261 259
253 253 253 253 253 253 253 254 254 255 255 255 256 256 257 257 257 258 258 258 259 259 259 259 260 260 260 260 260 260 259 259 259 259 258 259 259 259 259 259 260 260 261 262 263 264 264 265 266 266 267 267 267 268 268 268 268 268 267 266 265 265 263 263 262 262 261 261 261 261 260 260 259 260 260 260 260 260 260 260 260 260 261 262 261 259 258 260
252 252 253 253 253 254 254 254 255 255 256 256 256 257 257 257 257 257 257 258 258 258 258 258 258 258 258 258 257 257 257 257 257 257 257 258 258 259 260 260 261 262 262 263 264 264 265 266 266 267 267 268 268 269 269 268 268 268 267 267 266 264 263 263 263 262 261 261 261 260 260 260 259 259 259 260 260 260 260 260 259 259 260 261 260 258 259 261
251 251 252 252 253 253 254 254 255 255 255 256 256 256 256 257 256 256 256 256 256 256 255 255 255 256 256 256 256 256 256 256 257 257 258 259 260 260 261 262 262 263 263 264 264 265 265 266 266 267 267 267 268 268 268 268 268 268 268 266 265 264 264 264 264 262 261 261 261 261 260 260 259 259 260 260 261 260 261 260 259 259 258 258 258 258 258 260
250 250 251 251 252 252 253 253 254 254 255 255 255 255 255 255 255 255 255 254 254 254 254 254 254 255 255 255 256 256 257 257 258 259 259 260 261 261 262 262 263 263 263 264 264 265 265 265 266 266 266 266 266 267 268 268 268 268 268 266 266 265 263 263 263 262 261 261 261 261 261 260 259 259 260 261 261 261 261 261 260 259 257 256 257 254 252 255
249 250 250 251 251 251 252 252 253 253 254 254 254 254 254 254 254 254 254 254 254 254 254 254 254 255 255 256 257 257 258 259 259 259 260 261 261 261 262 262 262 263 263 263 263 264 264 264 265 265 265 266 266 267 268 268 269 269 268 268 269 266 263 263 263 261 261 261 261 261 261 263 262 260 262 262 263 263 262 262 261 260 258 256 254 251 250 253
249 249 250 250 251 251 251 252 252 253 253 253 254 254 253 253 253 253 254 254 254 254 254 255 255 256 257 258 258 258 259 259 259 260 260 260 260 261 261 261 261 262 262 262 262 261 262 263 264 265 266 266 267 267 268 269 270 271 271 272 271 268 265 264 263 263 264 263 262 262 264 267 265 263 265 264 263 265 265 263 262 260 259 256 254 252 250 251
249 249 250 250 250 251 251 251 252 252 253 253 253 253 253 253 253 253 254 254 255 255 255 256 257 257 258 259 259 259 259 259 259 259 259 259 259 259 259 259 259 259 259 259 259 260 260 262 264 265 266 268 269 269 270 271 271 272 273 273 271 271 270 265 264 268 268 264 262 265 266 268 269 267 268 268 266 266 267 265 263 261 259 258 256 253 252 254
248 249 249 250 250 250 251 251 252 252 252 253 253 253 253 253 253 254 254 255 256 256 257 257 258 258 259 259 259 259 259 258 258 258 257 257 257 257 257 257 257 257 258 258 258 259 260 263 264 265 267 268 269 270 271 272 272 273 273 273 273 274 274 268 267 272 270 265 266 267 267 269 273 273 270 270 269 267 268 268 266 263 260 259 257 256 256 257
248 249 249 250 250 250 251 251 252 252 252 252 253 253 253 254 254 254 255 256 257 257 258 258 259 258 258 258 258 258 257 257 256 256 255 255 255 255 256 257 257 257 258 258 259 260 261 263 264 265 266 267 267 268 270 270 271 272 272 273 273 274 274 271 271 272 269 268 269 268 269 272 275 275 272 271 271 269 269 270 270 268 265 262 260 258 256 256
248 248 249 249 249 250 250 251 251 252 252 253 253 253 254 254 255 255 255 256 257 257 257 258 258 257 257 257 256 256 256 255 254 254 254 254 254 254 255 256 257 257 258 258 259 260 261 262 263 264 265 265 266 267 268 268 269 270 271 271 272 273 272 273 274 269 267 269 269 269 270 271 272 274 273 271 270 270 270 270 271 271 269 267 265 263 259 258
247 248 248 249 249 249 250 250 251 252 252 253 253 254 254 254 254 255 255 255 256 256 256 256 256 256 255 255 254 253 254 253 253 253 253 254 254 254 255 256 257 258 258 258 259 260 260 261 262 263 263 264 265 265 266 267 267 268 269 270 270 270 270 274 273 267 267 269 269 270 269 267 268 271 271 269 269 270 271 270 270 270 271 271 270 269 266 262
246 247 247 248 248 249 249 250 250 251 252 252 253 253 253 254 254 254 254 254 254 254 254 254 254 253 253 253 252 252 251 252 252 252 253 253 254 255 256 257 258 259 259 259 259 259 259 260 262 262 262 264 264 265 265 266 266 267 267 268 267 267 269 271 269 267 269 268 267 269 267 263 264 267 269 269 270 271 271 268 268 270 271 271 272 272 271 267
245 246 247 247 248 248 249 249 249 250 251 251 251 252 252 252 253 253 253 252 253 253 252 252 251 251 251 252 252 251 251 251 251 252 253 254 255 255 257 259 260 260 260 260 260 260 260 261 262 262 263 264 264 264 264 264 265 265 265 265 264 265 266 267 267 268 268 266 266 267 265 263 263 265 267 268 267 268 267 266 267 269 270 270 271 271 271 270
244 245 246 246 247 248 248 248 249 249 249 249 249 250 250 250 251 251 251 250 250 250 250 250 250 249 250 250 251 251 251 251 252 252 253 254 254 255 257 259 259 260 261 261 261 260 261 262 262 262 263 263 263 263 263 264 264 265 264 263 263 264 264 265 268 268 265 264 265 265 263 263 264 265 266 265 264 265 265 265 266 266 267 268 268 268 269 270
243 243 244 245 246 246 247 247 248 248 248 248 248 247 247 247 248 249 249 248 247 247 248 248 248 248 248 249 251 252 252 253 253 253 254 254 254 255 256 258 259 260 261 262 261 261 262 262 261 262 262 262 263 264 264 265 265 265 264 263 264 265 265 265 266 266 265 264 264 264 264 264 265 266 266 265 265 266 266 266 266 265 265 266 267 267 267 268
242 242 243 244 244 245 247 247 247 248 248 247 246 245 245 246 247 247 248 248 247 246 247 248 248 248 248 249 251 252 253 253 253 253 254 255 255 255 256 257 258 259 261 261 261 262 261 261 261 262 262 262 263 264 265 265 265 265 265 265 265 265 265 266 265 265 265 264 264 265 265 264 266 267 265 265 266 267 266 266 266 265 264 265 266 266 266 267
241 241 242 244 244 245 246 247 247 248 248 246 245 244 244 245 247 247 248 248 248 247 247 247 248 248 248 249 250 252 252 253 253 253 254 255 255 255 255 257 258 259 260 260 261 262 261 260 261 262 262 263 263 264 265 265 264 264 265 265 265 264 264 265 265 263 263 263 264 264 265 265 266 265 265 266 266 266 265 265 265 265 264 264 265 266 267 267
241 241 242 244 245 246 247 247 248 248 248 247 246 245 245 245 246 247 248 248 249 248 247 247 248 248 249 250 250 252 252 252 252 253 254 255 255 255 255 256 257 258 258 259 260 261 259 259 260 261 262 262 263 265 265 265 265 264 264 266 266 266 265 263 263 263 262 263 264 264 265 265 265 265 266 265 264 266 266 265 266 267 267 266 266 267 267 267
243 243 244 245 246 247 248 248 248 248 248 247 246 246 245 245 246 247 248 248 249 249 248 248 249 250 250 251 251 251 252 251 252 252 253 254 254 255 255 255 256 256 257 258 259 259 258 258 259 260 262 263 264 266 265 265 266 265 264 266 267 266 264 262 261 262 262 263 265 264 263 263 263 264 266 265 264 266 267 267 267 268 268 268 267 266 266 266
245 245 245 246 246 247 247 248 248 248 248 247 246 245 246 246 247 248 248 248 249 249 249 249 250 251 252 252 252 252 252 252 252 252 253 254 254 254 255 255 255 256 256 257 258 258 258 259 259 261 262 263 264 265 264 265 266 264 264 265 265 264 262 261 261 261 263 264 262 261 261 261 262 263 263 264 265 265 266 266 266 267 267 267 266 265 265 265
246 246 246 246 246 247 247 247 248 248 247 247 246 246 246 246 247 248 249 249 249 250 250 250 251 252 253 254 253 253 253 253 253 252 253 253 254 254 255 255 255 256 257 257 258 258 259 260 261 261 261 262 263 262 263 264 264 264 264 263 262 262 262 262 262 262 262 262 260 260 261 261 262 262 263 266 267 266 265 264 264 265 266 266 266 265 265 266
246 246 246 246 247 247 247 247 247 247 248 247 246 247 247 248 249 250 250 250 251 251 251 252 253 254 255 256 256 254 254 254 253 253 254 254 254 254 255 256 256 257 258 259 259 261 261 261 260 260 260 261 261 261 262 263 263 263 264 263 262 262 262 262 263 262 261 261 260 260 262 263 263 263 264 267 267 266 266 266 265 264 263 264 265 264 264 265
246 246 246 246 246 247 246 247 247 247 248 248 247 248 248 249 250 251 252 252 252 252 253 254 255 255 256 257 257 256 255 255 254 253 254 255 255 255 255 256 257 258 259 260 262 262 262 261 259 259 260 260 261 261 262 262 262 263 263 262 261 261 262 262 262 261 261 260 261 261 263 264 264 264 264 265 265 265 266 265 264 264 263 262 262 262 262 263
248 248 247 247 247 247 247 246 247 247 248 248 248 248 249 250 250 251 253 253 253 253 254 255 256 257 257 257 258 257 256 257 256 254 254 255 256 257 257 256 257 258 260 262 263 263 262 262 261 259 259 261 262 262 262 263 263 263 262 262 262 262 262 262 260 261 261 261 262 262 263 263 262 262 263 262 263 264 264 264 264 264 264 263 262 262 262 262
250 249 249 248 248 248 248 247 247 247 247 248 249 249 250 250 251 252 253 255 255 255 255 256 256 257 257 257 257 257 257 257 257 256 256 256 255 257 257 257 257 259 260 262 263 263 262 262 262 262 261 261 262 263 262 263 263 263 262 262 262 262 262 261 260 260 261 262 263 263 263 263 261 260 260 261 261 262 263 265 265 264 264 263 263 263 263 262
252 251 251 249 249 248 249 249 248 248 248 248 249 249 250 251 251 252 254 255 256 256 256 256 257 258 258 258 257 257 257 258 258 257 256 256 255 256 257 258 258 259 259 260 262 263 263 264 264 264 265 264 264 264 263 263 263 263 263 262 261 261 262 262 261 261 261 262 264 263 262 263 263 261 260 260 260 262 263 264 264 265 265 264 264 263 263 263
256 254 252 252 250 249 249 249 249 249 249 249 249 250 250 250 251 252 253 255 256 257 257 257 257 257 258 260 259 258 258 259 259 258 257 256 256 256 258 259 259 259 259 259 261 263 264 265 265 265 266 266 265 264 264 264 263 262 262 261 260 260 261 262 262 262 262 261 262 263 262 262 263 262 261 261 261 262 263 264 265 266 266 265 264 264 264 264
262 259 256 255 253 251 251 250 250 250 250 250 250 250 250 250 251 251 252 253 255 256 256 257 257 257 258 260 261 259 258 259 259 259 259 258 257 257 258 259 260 260 260 260 261 262 264 265 267 267 266 266 266 265 264 264 263 262 260 259 260 260 260 261 261 261 262 262 262 263 263 262 263 263 262 263 264 263 263 263 265 265 266 265 265 265 265 265
263 263 261 260 258 255 253 252 251 250 250 250 250 250 250 250 251 251 251 252 253 254 255 255 257 258 258 259 260 260 260 259 259 260 259 259 259 258 258 259 261 262 262 262 262 263 264 265 266 267 266 265 265 265 264 263 262 261 260 259 259 260 260 260 261 261 262 263 262 262 262 263 263 264 264 264 264 265 265 265 264 264 265 266 266 266 266 266
263 263 263 263 261 259 258 256 254 252 252 251 250 250 250 250 250 250 251 252 252 253 253 254 255 257 257 258 259 260 260 259 259 259 260 260 260 260 260 260 261 261 262 263 263 263 264 265 264 264 264 265 264 263 263 263 262 261 261 260 260 260 260 260 261 262 262 262 262 261 262 263 263 264 266 266 264 265 266 266 265 265 265 265 266 267 267 266
263 264 264 263 262 261 261 260 258 256 255 253 252 251 251 251 250 251 251 251 252 252 252 253 253 255 256 257 258 259 259 260 259 259 260 260 260 260 261 261 260 260 261 262 262 262 262 263 262 262 262 262 263 263 262 261 261 261 262 262 261 261 262 262 262 263 263 262 263 262 261 262 263 265 267 267 266 265 265 266 266 265 265 265 265 265 266 266
263 263 263 264 263 262 262 261 260 259 257 256 255 254 253 252 252 251 251 251 251 251 252 252 252 253 254 256 257 258 258 259 259 259 259 259 260 260 260 260 260 260 260 260 261 261 261 260 260 261 261 261 262 263 262 262 261 261 261 261 261 261 262 263 262 262 263 264 265 265 263 263 264 266 267 267 267 267 266 266 265 265 264 264 264 264 264 265
262 261 262 264 264 263 262 262 261 259 258 258 259 257 254 253 253 251 251 251 251 251 252 252 252 253 253 254 255 256 257 257 258 259 259 259 259 259 259 258 258 258 258 259 260 259 260 260 259 260 261 261 262 263 263 262 262 261 261 261 261 262 262 262 262 262 262 264 265 265 265 265 264 264 266 267 268 268 266 264 263 262 262 262 263 263 264 264
261 259 260 263 264 263 263 262 261 260 260 259 258 257 256 256 254 253 252 252 252 252 252 252 252 253 253 253 254 255 256 256 257 258 258 259 259 258 258 258 257 257 257 258 258 258 259 260 260 260 261 261 262 263 263 262 262 262 262 262 262 262 263 263 263 264 264 265 266 265 266 266 264 262 263 264 265 266 265 264 263 262 260 260 261 262 263 264
261 260 259 260 261 262 262 262 261 260 261 261 259 258 258 257 256 255 254 254 254 253 253 253 253 253 253 253 254 255 255 255 256 256 257 258 258 257 258 258 257 257 257 257 257 257 257 259 259 259 260 260 261 262 262 262 262 263 263 263 263 263 264 265 266 266 267 267 267 267 267 267 266 262 261 262 263 263 263 264 264 264 263 263 262 261 263 264
258 259 259 258 258 260 261 261 261 260 260 261 260 259 258 257 257 256 255 254 255 255 254 254 254 254 254 254 254 255 255 255 256 256 256 258 258 256 257 257 257 257 257 256 257 257 256 257 258 258 259 259 260 261 262 263 263 264 263 263 264 264 266 267 268 268 269 267 267 268 268 267 267 266 264 263 264 264 264 264 264 265 265 265 265 264 264 265
254 255 257 257 256 257 259 260 260 260 259 259 260 259 259 258 257 257 256 255 255 255 255 255 255 255 255 255 255 255 256 255 256 256 256 257 258 256 256 257 257 256 256 256 256 257 256 256 257 258 257 258 259 261 262 263 263 264 264 264 265 266 267 268 269 269 269 267 266 267 267 266 268 270 269 268 266 266 266 267 267 266 265 265 265 265 264 265
254 253 254 255 255 255 256 257 258 258 258 258 259 259 258 258 257 257 257 256 255 255 255 255 256 256 256 257 256 256 257 256 257 257 257 257 258 257 256 257 257 256 256 256 256 256 257 256 256 257 257 257 258 260 261 262 263 263 264 264 266 266 267 268 269 269 268 268 266 265 265 266 268 270 271 270 269 268 267 267 268 268 268 267 267 267 266 266
256 255 254 254 254 254 253 254 255 256 257 257 257 258 258 258 257 257 257 257 256 256 256 255 255 256 256 257 257 257 258 259 259 259 259 259 259 258 257 257 258 257 257 257 256 256 256 256 256 256 257 257 258 259 259 261 262 262 263 264 265 265 265 265 266 267 267 267 266 265 265 268 269 269 269 270 270 269 269 268 268 268 268 268 268 268 268 266
257 256 255 255 254 254 253 253 253 254 254 255 256 256 257 257 257 256 257 257 257 256 257 256 256 257 257 257 257 258 260 261 260 260 260 261 261 261 260 259 259 258 258 258 258 257 257 257 257 257 257 257 258 259 259 260 260 261 262 263 264 264 264 262 262 262 263 265 265 265 265 267 268 267 267 268 268 269 269 270 269 269 268 268 267 267 267 267
259 258 257 255 254 254 254 253 253 252 252 254 255 255 255 255 256 256 256 257 257 257 258 258 257 257 257 257 259 260 260 260 260 260 261 261 262 262 262 262 262 261 259 259 259 259 259 258 259 259 258 258 258 259 259 259 260 261 263 263 262 261 261 261 261 261 261 262 263 264 265 264 262 262 264 266 268 269 270 270 271 271 270 270 269 268 267 267
259 258 258 257 255 254 254 254 254 253 253 252 253 253 254 255 255 256 256 256 257 257 258 258 258 258 258 259 260 260 259 259 260 260 260 261 262 262 262 262 263 263 262 261 260 260 261 261 261 261 260 259 259 260 260 259 261 263 263 261 260 260 260 261 262 262 261 261 261 262 262 261 260 261 263 266 268 270 270 271 272 272 271 271 272 271 270 269
Height
10653 10655 10657 10659 10661 10664 10666 10667 10669 10671 10673 10675 10678 10680 10682 10685 10686 10688 10690 10691 10693 10695 10697 10698 10700 10702 10703 10704 10706 10707 10709 10711 10712 10713 10714 10715 10717 10718 10719 10720 10721 10721 10721 10722 10723 10724 10725 10725 10726 10726 10728 10728 10728 10729 10730 10729 10731 10731 10731 10732 10731 10731 10729 10733 10740 10739 10734 10728 10739 10749 10740 10737 10739 10743 10741 10739 10739 10741 10747 10746 10745 10748 10752 10760 10764 10757 10749 10750
10646 10648 10650 10653 10655 10657 10659 10661 10663 10665 10667 10669 10671 10673 10675 10678 10680 10682 10683 10684 10686 10688 10689 10691 10692 10694 10695 10697 10698 10700 10701 10703 10704 10706 10707 10708 10709 10710 10711 10711 10712 10713 10713 10714 10714 10715 10716 10716 10716 10717 10718 10718 10719 10719 10720 10720 10721 10720 10721 10722 10720 10719 10722 10729 10731 10728 10724 10723 10731 10733 10728 10727 10729 10735 10733 10730 10731 10733 10737 10737 10737 10738 10746 10754 10754 10749 10745 10745
10640 10642 10644 10646 10648 10650 10653 10654 10656 10658 10660 10662 10664 10667 10669 10671 10673 10675 10676 10678 10679 10681 10682 10683 10685 10686 10688 10689 10691 10692 10693 10696 10697 10698 10699 10701 10701 10702 10703 10703 10703 10704 10705 10706 10706 10707 10707 10707 10707 10708 10709 10709 10710 10710 10710 10711 10711 10711 10713 10711 10709 10712 10717 10720 10719 10718 10717 10716 10720 10719 10716 10716 10722 10728 10725 10723 10723 10724 10726 10727 10727 10729 10739 10745 10743 10741 10740 10741
10633 10635 10637 10639 10641 10644 10646 10648 10649 10651 10653 10656 10658 10660 10663 10665 10667 10668 10670 10671 10672 10674 10675 10676 10677 10679 10680 10681 10683 10684 10686 10689 10690 10691 10691 10693 10693 10694 10695 10695 10695 10696 10697 10698 10698 10698 10699 10699 10699 10699 10699 10700 10701 10700 10702 10703 10701 10702 10703 10700 10701 10708 10709 10709 10711 10710 10709 10707 10708 10708 10707 10709 10715 10719 10717 10718 10717 10714 10716 10718 10716 10721 10733 10737 10735 10734 10734 10736
10627 10628 10630 10632 10635 10637 10639 10641 10643 10645 10647 10650 10652 10654 10656 10658 10660 10662 10663 10664 10665 10666 10667 10669 10670 10671 10672 10674 10675 10677 10679 10682 10683 10683 10683 10684 10685 10686 10686 10686 10687 10688 10689 10690 10690 10690 10690 10690 10690 10690 10690 10692 10692 10692 10695 10694 10691 10693 10693 10692 10696 10701 10698 10700 10703 10700 10698 10697 10698 10700 10699 10702 10706 10708 10709 10709 10709 10706 10706 10709 10707 10716 10729 10729 10728 10729 10731 10734
10620 10622 10624 10626 10628 10630 10632 10634 10636 10638 10641 10643 10646 10648 10649 10651 10653 10655 10656 10657 10658 10659 10660 10661 10662 10664 10665 10666 10668 10669 10672 10674 10675 10675 10676 10676 10678 10678 10678 10679 10679 10680 10681 10682 10683 10682 10682 10682 10681 10682 10682 10684 10685 10685 10687 10684 10682 10685 10684 10686 10689 10690 10690 10692 10692 10689 10689 10690 10691 10692 10691 10695 10695 10698 10700 10698 10702 10702 10698 10700 10702 10713 10722 10718 10719 10722 10729 10736
10614 10615 10617 10619 10621 10624 10626 10627 10629 10632 10634 10637 10639 10641 10642 10644 10646 10647 10648 10649 10650 10651 10652 10654 10655 10656 10657 10659 10660 10662 10665 10666 10667 10667 10668 10669 10670 10670 10670 10671 10672 10672 10673 10674 10674 10674 10674 10674 10674 10675 10675 10677 10677 10676 10678 10674 10674 10677 10677 10679 10680 10680 10681 10681 10680 10680 10681 10682 10683 10682 10682 10685 10686 10690 10688 10686 10694 10696 10693 10695 10700 10708 10709 10706 10711 10714 10726 10734
10608 10609 10611 10613 10615 10617 10619 10621 10623 10625 10628 10630 10632 10634 10635 10636 10638 10640 10641 10642 10643 10644 10645 10646 10647 10648 10650 10651 10653 10655 10657 10658 10659 10660 10660 10661 10661 10662 10663 10663 10664 10664 10665 10665 10665 10666 10667 10667 10668 10668 10668 10669 10668 10668 10668 10666 10668 10670 10669 10670 10671 10671 10672 10672 10671 10671 10673 10674 10673 10673 10674 10676 10677 10679 10675 10677 10686 10687 10689 10691 10696 10702 10699 10698 10702 10709 10724 10728
10602 10603 10605 10606 10608 10610 10612 10614 10616 10619 10621 10623 10625 10626 10628 10629 10631 10633 10633 10634 10635 10637 10638 10639 10640 10641 10642 10644 10646 10647 10649 10650 10651 10652 10653 10653 10653 10654 10655 10656 10656 10657 10657 10658 10658 10659 10660 10661 10661 10661 10662 10661 10661 10661 10660 10660 10662 10661 10661 10662 10662 10663 10664 10663 10662 10663 10665 10664 10664 10664 10665 10668 10668 10667 10667 10673 10676 10677 10682 10684 10690 10695 10691 10691 10693 10705 10718 10715
10596 10598 10599 10601 10602 10604 10606 10608 10610 10612 10614 10616 10618 10620 10621 10623 10625 10626 10627 10627 10628 10630 10631 10632 10633 10634 10635 10637 10638 10640 10641 10643 10644 10645 10645 10645 10646 10647 10648 10648 10649 10650 10650 10651 10652 10653 10653 10654 10654 10654 10655 10655 10654 10654 10653 10654 10654 10652 10654 10654 10654 10656 10655 10654 10654 10655 10656 10655 10656 10656 10657 10659 10657 10657 10660 10665 10666 10667 10673 10676 10682 10685 10682 10685 10690 10702 10708 10698
10591 10593 10594 10595 10597 10599 10601 10603 10605 10606 10608 10609 10611 10613 10615 10616 10618 10619 10620 10621 10622 10623 10624 10625 10626 10627 10629 10630 10632 10632 10633 10636 10637 10638 10638 10639 10640 10640 10641 10642 10642 10643 10644 10645 10646 10647 10647 10648 10648 10648 10649 10648 10647 10648 10647 10647 10646 10645 10647 10646 10647 10648 10646 10645 10646 10648 10648 10648 10648 10648 10649 10648 10648 10651 10653 10654 10657 10659 10663 10669 10675 10674 10674 10680 10685 10695 10697 10689
10587 10588 10589 10591 10592 10594 10596 10598 10599 10600 10602 10604 10606 10607 10609 10611 10612 10613 10614 10614 10616 10617 10618 10619 10620 10621 10623 10624 10625 10626 10628 10630 10631 10631 10632 10633 10633 10634 10635 10635 10637 10638 10639 10639 10640 10641 10641 10642 10641 10642 10642 10641 10641 10642 10640 10640 10639 10639 10639 10639 10640 10640 10639 10639 10640 10640 10640 10641 10641 10639 10640 10639 10640 10644 10644 10645 10650 10652 10654 10661 10666 10666 10670 10674 10676 10684 10686 10680
10582 10584 10585 10586 10588 10589 10591 10593 10594 10595 10597 10598 10600 10602 10604 10605 10606 10607 10608 10609 10610 10611 10612 10613 10614 10616 10617 10618 10619 10621 10622 10624 10625 10625 10626 10627 10627 10628 10629 10630 10631 10632 10633 10634 10634 10635 10635 10635 10635 10636 10636 10635 10636 10635 10634 10634 10634 10634 10633 10633 10634 10633 10634 10634 10633 10633 10633 10635 10634 10632 10632 10630 10633 10637 10637 10640 10643 10644 10646 10651 10656 10660 10666 10667 10667 10675 10675 10670
10578 10579 10580 10582 10583 10585 10587 10588 10589 10590 10592 10594 10595 10597 10599 10600 10601 10602 10602 10603 10605 10606 10607 10608 10609 10610 10612 10613 10614 10616 10617 10618 10619 10620 10620 10621 10621 10622 10623 10624 10625 10626 10627 10628 10628 10629 10629 10629 10629 10630 10630 10630 10630 10629 10630 10629 10628 10629 10627 10627 10629 10627 10629 10630 10627 10627 10628 10630 10629 10626 10625 10622 10626 10632 10631 10634 10636 10637 10639 10642 10647 10652 10658 10661 10663 10668 10666 10662
10573 10574 10576 10577 10579 10580 10582 10583 10584 10585 10587 10589 10591 10592 10594 10595 10596 10597 10597 10598 10600 10601 10602 10603 10604 10606 10607 10608 10609 10610 10611 10613 10613 10614 10614 10615 10615 10616 10617 10618 10620 10621 10621 10622 10623 10623 10623 10624 10624 10624 10625 10625 10625 10625 10625 10624 10624 10624 10622 10623 10624 10621 10624 10626 10622 10622 10624 10626 10624 10620 10620 10615 10619 10629 10628 10629 10632 10630 10631 10634 10639 10644 10648 10654 10657 10659 10656 10653
10568 10569 10571 10573 10574 10576 10577 10578 10579 10581 10582 10584 10586 10587 10588 10590 10591 10592 10593 10593 10595 10596 10597 10598 10599 10601 10602 10602 10603 10605 10606 10606 10607 10608 10609 10609 10610 10610 10612 10613 10614 10615 10616 10617 10617 10618 10619 10619 10619 10619 10620 10619 10620 10620 10620 10620 10620 10619 10618 10620 10619 10615 10621 10624 10618 10618 10621 10622 10619 10616 10617 10611 10613 10625 10624 10623 10627 10625 10624 10626 10631 10636 10639 10645 10648 10647 10644 10640
10563 10565 10566 10568 10570 10571 10573 10573 10574 10576 10578 10580 10581 10582 10583 10585 10586 10587 10588 10588 10589 10591 10592 10593 10594 10596 10597 10596 10597 10599 10599 10600 10601 10602 10603 10603 10604 10605 10606 10608 10609 10610 10611 10611 10612 10613 10614 10614 10615 10615 10615 10615 10616 10615 10615 10615 10615 10615 10615 10616 10614 10611 10617 10620 10615 10616 10618 10617 10615 10614 10614 10608 10608 10620 10620 10617 10621 10621 10618 10620 10624 10629 10632 10635 10637 10638 10636 10632
10558 10559 10561 10563 10565 10567 10568 10569 10570 10571 10574 10575 10576 10577 10578 10580 10581 10582 10583 10583 10584 10585 10586 10587 10588 10591 10591 10590 10592 10592 10593 10595 10596 10597 10597 10598 10599 10600 10601 10602 10603 10604 10605 10606 10607 10609 10610 10610 10610 10610 10611 10612 10611 10611 10611 10611 10611 10611 10611 10611 10611 10610 10612 10614 10614 10615 10614 10612 10612 10612 10611 10606 10605 10614 10616 10613 10615 10616 10614 10614 10616 10621 10624 10627 10628 10630 10631 10628
10553 10554 10556 10558 10560 10561 10563 10564 10565 10567 10569 10570 10571 10572 10573 10575 10576 10577 10577 10578 10579 10579 10581 10581 10583 10584 10584 10585 10586 10586 10587 10589 10590 10592 10592 10593 10594 10595 10596 10597 10598 10600 10600 10602 10603 10604 10605 10606 10606 10606 10607 10607 10606 10606 10606 10606 10607 10607 10607 10608 10607 10607 10607 10609 10612 10612 10609 10608 10609 10610 10608 10605 10604 10607 10610 10609 10609 10610 10611 10609 10610 10613 10617 10620 10621 10624 10627 10627
10548 10549 10551 10553 10554 10556 10558 10559 10560 10562 10563 10565 10566 10567 10568 10569 10570 10571 10572 10573 10573 10574 10575 10576 10577 10578 10579 10580 10581 10581 10582 10583 10585 10586 10587 10588 10589 10590 10591 10592 10593 10595 10596 10597 10598 10599 10600 10600 10601 10602 10602 10602 10601 10602 10602 10601 10602 10603 10603 10604 10603 10604 10602 10603 10609 10608 10605 10604 10604 10606 10606 10603 10601 10602 10604 10605 10604 10605 10607 10606 10605 10607 10609 10612 10615 10618 10622 10625
10542 10544 10546 10547 10549 10551 10552 10554 10555 10557 10558 10559 10561 10562 10563 10564 10565 10566 10567 10568 10568 10569 10570 10570 10571 10573 10574 10575 10575 10576 10577 10578 10580 10581 10582 10583 10584 10585 10586 10587 10588 10590 10591 10592 10593 10595 10595 10596 10598 10598 10596 10596 10597 10597 10597 10597 10598 10598 10599 10600 10600 10599 10597 10599 10604 10602 10601 10601 10600 10602 10604 10600 10597 10598 10600 10600 10600 10601 10603 10603 10601 10602 10603 10605 10608 10611 10614 10620
10537 10539 10540 10542 10544 10546 10547 10549 10550 10551 10553 10554 10555 10556 10557 10558 10559 10560 10562 10562 10563 10564 10565 10565 10567 10569 10569 10570 10571 10571 10572 10573 10574 10576 10577 10578 10579 10581 10580 10582 10583 10584 10585 10586 10589 10589 10589 10592 10593 10592 10591 10592 10592 10592 10592 10593 10593 10594 10595 10596 10595 10595 10595 10595 10597 10597 10598 10597 10595 10598 10600 10596 10594 10595 10595 10596 10596 10597 10599 10599 10598 10598 10598 10599 10601 10603 10606 10611
10533 10534 10536 10537 10539 10540 10542 10544 10545 10547 10548 10549 10550 10551 10552 10553 10554 10555 10556 10557 10558 10559 10560 10560 10562 10564 10565 10566 10566 10566 10568 10569 10569 10571 10572 10573 10575 10575 10576 10577 10578 10579 10580 10581 10583 10583 10584 10589 10588 10586 10587 10587 10586 10587 10587 10588 10589 10590 10591 10591 10590 10591 10591 10590 10590 10593 10594 10591 10591 10595 10595 10591 10591 10591 10592 10593 10592 10592 10594 10594 10594 10594 10594 10595 10595 10596 10598 10601
10528 10530 10531 10532 10534 10535 10537 10539 10541 10542 10543 10544 10545 10546 10547 10548 10549 10550 10551 10552 10553 10554 10555 10556 10558 10560 10560 10561 10561 10562 10563 10564 10565 10567 10567 10568 10570 10570 10572 10573 10572 10573 10575 10576 10577 10578 10581 10584 10581 10581 10582 10581 10580 10581 10582 10583 10584 10585 10585 10585 10585 10586 10586 10585 10586 10588 10587 10586 10587 10589 10589 10587 10586 10587 10588 10587 10586 10587 10588 10589 10591 10591 10589 10590 10590 10590 10592 10593
10524 10525 10527 10528 10529 10531 10532 10534 10536 10537 10538 10539 10540 10542 10543 10544 10544 10545 10546 10547 10548 10549 10550 10552 10554 10555 10556 10557 10557 10557 10558 10559 10561 10562 10562 10563 10565 10566 10567 10568 10567 10569 10570 10570 10571 10573 10578 10578 10575 10576 10577 10575 10575 10576 10578 10579 10580 10580 10580 10580 10581 10582 10582 10581 10583 10583 10580 10581 10581 10582 10585 10582 10581 10583 10583 10581 10580 10582 10583 10584 10585 10586 10585 10584 10585 10585 10586 10587
10520 10521 10522 10524 10525 10526 10528 10530 10531 10532 10533 10534 10536 10537 10538 10539 10540 10540 10541 10541 10543 10545 10546 10547 10549 10550 10551 10552 10552 10552 10553 10554 10556 10557 10557 10559 10560 10561 10562 10562 10563 10565 10565 10565 10565 10568 10573 10572 10570 10571 10571 10570 10571 10572 10574 10574 10575 10576 10575 10575 10577 10578 10577 10577 10578 10578 10575 10575 10576 10577 10578 10578 10578 10578 10576 10575 10576 10576 10578 10579 10579 10580 10580 10579 10579 10580 10580 10581
10516 10517 10518 10519 10521 10522 10524 10525 10527 10527 10528 10529 10531 10532 10534 10535 10535 10536 10536 10536 10538 10540 10541 10543 10544 10545 10547 10547 10547 10548 10549 10550 10551 10553 10553 10554 10555 10556 10557 10558 10558 10561 10560 10559 10560 10564 10567 10566 10566 10566 10566 10566 10567 10568 10570 10569 10571 10573 10570 10570 10572 10573 10573 10573 10572 10573 10571 10570 10573 10573 10572 10573 10574 10571 10570 10571 10570 10569 10572 10573 10572 10574 10575 10574 10574 10575 10575 10575
10511 10513 10514 10515 10516 10518 10520 10521 10522 10523 10523 10525 10526 10528 10529 10530 10530 10531 10531 10532 10534 10535 10536 10538 10539 10541 10542 10542 10543 10543 10544 10545 10547 10548 10548 10549 10551 10551 10553 10554 10554 10556 10555 10554 10556 10559 10561 10561 10562 10562 10561 10562 10562 10565 10566 10564 10566 10569 10566 10565 10567 10568 10570 10568 10567 10568 10566 10566 10570 10569 10567 10569 10569 10565 10564 10566 10565 10563 10565 10566 10566 10567 10568 10570 10570 10570 10570 10569
10507 10508 10509 10511 10512 10514 10515 10516 10517 10518 10518 10520 10521 10523 10524 10525 10526 10525 10525 10528 10530 10529 10531 10533 10534 10536 10537 10537 10538 10538 10539 10541 10542 10543 10544 10545 10546 10546 10548 10549 10549 10550 10550 10550 10551 10553 10555 10556 10557 10557 10557 10558 10559 10561 10561 10559 10561 10564 10562 10562 10562 10563 10564 10563 10562 10562 10560 10563 10567 10565 10563 10564 10564 10561 10559 10559 10560 10560 10559 10561 10562 10562 10563 10564 10565 10565 10564 10563
10502 10504 10505 10506 10507 10509 10510 10511 10512 10512 10514 10515 10516 10518 10519 10520 10520 10519 10521 10524 10524 10524 10526 10529 10530 10531 10531 10532 10533 10533 10534 10536 10538 10538 10539 10541 10541 10542 10543 10543 10544 10544 10545 10545 10545 10547 10550 10551 10552 10553 10553 10553 10555 10557 10556 10554 10556 10557 10558 10558 10557 10556 10556 10556 10557 10557 10556 10559 10561 10558 10557 10559 10559 10557 10552 10552 10556 10556 10554 10557 10558 10557 10558 10558 10559 10558 10558 10558
10497 10498 10500 10501 10502 10503 10505 10506 10506 10507 10509 10510 10511 10513 10514 10514 10514 10515 10516 10518 10519 10519 10522 10524 10525 10526 10526 10527 10528 10529 10530 10531 10532 10534 10535 10536 10536 10537 10538 10538 10539 10539 10540 10540 10539 10541 10545 10547 10548 10549 10548 10548 10550 10551 10551 10550 10550 10551 10553 10554 10551 10549 10549 10551 10552 10552 10552 10553 10553 10552 10552 10555 10555 10552 10547 10546 10551 10551 10549 10552 10553 10553 10553 10553 10553 10553 10552 10551
10492 10493 10494 10496 10497 10498 10500 10500 10501 10503 10503 10504 10506 10507 10508 10509 10510 10511 10511 10512 10513 10514 10516 10518 10519 10520 10521 10522 10522 10523 10525 10525 10527 10529 10529 10530 10531 10532 10532 10532 10533 10534 10534 10533 10534 10538 10541 10542 10543 10543 10542 10543 10544 10546 10547 10546 10545 10546 10548 10547 10545 10542 10542 10546 10547 10546 10547 10546 10546 10547 10547 10550 10551 10546 10543 10543 10543 10543 10543 10546 10547 10548 10548 10548 10548 10548 10546 10546
10486 10487 10488 10490 10491 10492 10494 10495 10496 10497 10497 10499 10500 10501 10502 10504 10506 10505 10505 10506 10508 10508 10511 10513 10514 10515 10517 10516 10515 10517 10519 10519 10521 10524 10524 10525 10526 10525 10526 10527 10527 10528 10529 10528 10530 10534 10534 10534 10536 10537 10536 10537 10539 10541 10541 10540 10539 10542 10542 10540 10539 10536 10535 10541 10542 10539 10539 10539 10540 10543 10544 10546 10545 10540 10540 10538 10536 10536 10537 10539 10541 10541 10542 10543 10543 10542 10540 10540
10479 10480 10482 10483 10485 10486 10487 10488 10490 10491 10492 10493 10494 10495 10497 10498 10500 10500 10499 10500 10501 10503 10506 10508 10508 10510 10510 10510 10509 10511 10514 10513 10514 10517 10518 10520 10520 10518 10519 10521 10521 10523 10524 10523 10525 10527 10527 10526 10528 10530 10531 10531 10533 10534 10535 10534 10533 10535 10536 10534 10533 10530 10529 10534 10534 10532 10532 10532 10535 10539 10539 10540 10539 10535 10532 10531 10530 10530 10531 10532 10534 10535 10536 10536 10536 10535 10534 10535
10472 10473 10475 10477 10478 10479 10480 10481 10483 10484 10486 10487 10488 10490 10491 10492 10493 10494 10493 10493 10495 10498 10500 10502 10502 10503 10503 10502 10502 10505 10508 10507 10508 10511 10512 10514 10514 10512 10512 10513 10515 10518 10519 10518 10518 10519 10519 10519 10519 10521 10524 10526 10526 10527 10528 10528 10527 10527 10529 10528 10526 10523 10523 10526 10527 10527 10526 10525 10529 10533 10533 10531 10531 10529 10525 10524 10524 10524 10525 10527 10528 10528 10529 10529 10529 10529 10528 10528
10466 10466 10468 10469 10471 10471 10472 10474 10475 10477 10479 10480 10481 10483 10484 10486 10486 10487 10487 10487 10489 10492 10494 10494 10496 10496 10494 10494 10496 10499 10502 10501 10501 10505 10506 10505 10506 10505 10505 10507 10509 10512 10513 10512 10512 10511 10511 10512 10512 10514 10516 10518 10519 10519 10520 10522 10521 10521 10522 10521 10519 10516 10516 10518 10521 10521 10520 10521 10523 10525 10526 10524 10521 10520 10518 10516 10518 10519 10520 10521 10522 10521 10522 10522 10522 10522 10521 10521
10460 10460 10461 10462 10463 10464 10465 10466 10468 10469 10471 10473 10475 10475 10477 10478 10479 10480 10482 10481 10482 10485 10487 10487 10488 10489 10487 10486 10489 10493 10496 10495 10494 10496 10497 10497 10499 10500 10499 10500 10502 10505 10506 10506 10505 10505 10505 10504 10505 10508 10509 10509 10510 10511 10512 10513 10514 10515 10514 10513 10511 10510 10510 10512 10514 10514 10513 10516 10518 10517 10518 10518 10512 10509 10510 10510 10512 10515 10514 10515 10516 10516 10514 10514 10514 10515 10515 10514
10454 10454 10455 10455 10455 10456 10458 10459 10460 10462 10463 10465 10467 10467 10469 10470 10472 10474 10475 10475 10476 10478 10479 10480 10480 10481 10481 10481 10481 10484 10488 10488 10487 10489 10489 10489 10492 10494 10493 10494 10496 10497 10498 10498 10498 10499 10498 10497 10497 10500 10502 10501 10500 10503 10505 10506 10506 10507 10507 10505 10504 10504 10504 10505 10507 10507 10506 10509 10512 10511 10511 10510 10505 10500 10501 10504 10506 10507 10508 10510 10510 10508 10506 10505 10505 10508 10508 10507
10449 10449 10451 10449 10449 10450 10451 10451 10453 10454 10455 10457 10458 10458 10460 10462 10464 10465 10466 10467 10469 10470 10472 10473 10472 10473 10475 10475 10473 10476 10480 10480 10480 10481 10480 10480 10484 10486 10487 10489 10490 10490 10490 10489 10491 10491 10490 10491 10492 10491 10492 10493 10493 10496 10498 10498 10498 10498 10498 10498 10497 10498 10498 10498 10499 10500 10500 10502 10504 10504 10504 10503 10497 10492 10494 10498 10499 10499 10501 10503 10502 10500 10499 10497 10498 10500 10500 10498
10444 10445 10446 10444 10443 10444 10444 10444 10446 10447 10448 10449 10449 10449 10452 10454 10455 10457 10459 10460 10461 10462 10464 10466 10466 10465 10466 10468 10467 10468 10471 10471 10473 10473 10472 10472 10476 10477 10480 10483 10483 10482 10482 10480 10482 10484 10483 10484 10485 10484 10485 10486 10486 10489 10491 10491 10490 10490 10490 10492 10491 10490 10491 10492 10493 10493 10494 10495 10494 10496 10499 10495 10488 10486 10488 10489 10491 10494 10494 10494 10494 10494 10492 10491 10492 10493 10492 10491
10439 10440 10441 10437 10437 10440 10439 10439 10440 10441 10441 10440 10440 10441 10444 10445 10447 10450 10451 10452 10453 10454 10456 10458 10459 10458 10459 10461 10460 10461 10462 10463 10464 10465 10465 10464 10466 10470 10474 10474 10473 10474 10474 10472 10473 10476 10476 10476 10477 10476 10479 10480 10478 10481 10484 10483 10483 10483 10484 10485 10484 10483 10484 10486 10487 10486 10485 10486 10486 10489 10492 10487 10482 10483 10482 10480 10483 10488 10488 10486 10487 10487 10485 10484 10485 10485 10484 10483
10433 10435 10435 10431 10432 10435 10434 10434 10435 10435 10434 10433 10433 10435 10437 10437 10439 10442 10443 10443 10444 10446 10448 10450 10451 10451 10453 10453 10452 10453 10455 10455 10455 10456 10457 10456 10458 10464 10467 10465 10465 10467 10466 10464 10466 10469 10468 10468 10469 10469 10472 10473 10471 10473 10476 10476 10475 10477 10478 10479 10477 10477 10478 10478 10479 10478 10477 10479 10480 10481 10482 10480 10479 10478 10474 10471 10474 10479 10481 10479 10479 10480 10478 10476 10477 10478 10477 10476
10427 10429 10429 10426 10427 10429 10428 10429 10430 10428 10427 10427 10428 10429 10429 10429 10431 10433 10434 10434 10436 10438 10439 10440 10442 10444 10445 10446 10446 10446 10447 10448 10447 10448 10448 10448 10452 10458 10457 10456 10458 10458 10458 10458 10459 10461 10460 10460 10463 10463 10464 10465 10464 10465 10468 10467 10466 10469 10472 10471 10470 10471 10471 10470 10471 10470 10471 10474 10473 10472 10473 10472 10473 10473 10468 10465 10466 10469 10472 10472 10470 10471 10471 10469 10471 10471 10470 10471
10420 10423 10423 10422 10422 10423 10423 10424 10424 10423 10421 10422 10423 10422 10423 10424 10424 10425 10426 10427 10428 10430 10431 10431 10434 10436 10436 10438 10438 10438 10439 10441 10440 10440 10440 10440 10445 10450 10447 10448 10450 10450 10451 10452 10451 10454 10454 10452 10455 10457 10457 10458 10458 10458 10459 10458 10457 10460 10464 10463 10463 10464 10462 10462 10463 10462 10465 10469 10464 10464 10467 10463 10463 10467 10464 10459 10460 10460 10461 10462 10461 10462 10463 10464 10466 10465 10464 10464
10414 10415 10417 10416 10416 10417 10417 10418 10418 10417 10416 10417 10417 10417 10418 10418 10418 10419 10420 10421 10421 10422 10423 10424 10426 10427 10427 10429 10430 10429 10432 10433 10432 10433 10433 10432 10437 10441 10439 10439 10441 10442 10445 10445 10442 10446 10448 10445 10447 10450 10450 10451 10452 10450 10449 10449 10449 10453 10456 10455 10454 10456 10454 10454 10455 10454 10459 10461 10455 10456 10461 10454 10451 10457 10457 10454 10454 10453 10452 10453 10453 10453 10456 10457 10459 10459 10458 10457
10407 10408 10409 10410 10410 10411 10411 10412 10411 10411 10411 10411 10411 10413 10413 10412 10413 10413 10413 10415 10415 10415 10416 10417 10418 10418 10419 10421 10422 10421 10423 10425 10424 10426 10427 10424 10427 10433 10433 10430 10432 10435 10437 10436 10435 10438 10439 10439 10440 10442 10442 10443 10444 10442 10441 10441 10442 10445 10447 10446 10446 10448 10448 10446 10446 10449 10451 10450 10448 10451 10451 10445 10442 10445 10448 10447 10446 10446 10446 10447 10446 10446 10448 10450 10450 10451 10451 10449
10401 10402 10402 10402 10403 10405 10405 10405 10404 10404 10406 10406 10405 10407 10408 10407 10408 10407 10407 10409 10409 10409 10409 10411 10411 10411 10412 10413 10414 10414 10415 10416 10416 10417 10419 10417 10418 10424 10425 10421 10423 10428 10427 10427 10428 10429 10430 10432 10432 10433 10434 10436 10436 10435 10434 10433 10435 10437 10437 10438 10439 10440 10440 10438 10438 10442 10441 10438 10443 10445 10438 10437 10439 10437 10437 10438 10437 10438 10439 10439 10439 10439 10441 10443 10442 10443 10444 10443
10394 10395 10395 10395 10396 10398 10398 10397 10397 10398 10399 10399 10400 10401 10402 10401 10402 10401 10401 10403 10403 10403 10404 10405 10405 10405 10405 10406 10407 10407 10407 10408 10410 10410 10411 10410 10410 10415 10417 10413 10415 10419 10418 10419 10421 10420 10421 10424 10424 10424 10426 10428 10428 10428 10427 10425 10426 10428 10429 10431 10432 10432 10433 10432 10431 10434 10431 10427 10435 10436 10428 10431 10436 10431 10427 10428 10427 10429 10432 10431 10431 10431 10432 10434 10434 10435 10436 10437
10385 10386 10387 10387 10389 10390 10391 10390 10389 10391 10392 10392 10394 10395 10395 10395 10396 10396 10396 10396 10398 10397 10397 10399 10398 10398 10399 10399 10399 10401 10401 10402 10403 10404 10404 10403 10403 10406 10408 10407 10407 10410 10410 10410 10412 10413 10413 10414 10415 10416 10417 10420 10421 10420 10419 10418 10417 10419 10421 10424 10425 10424 10426 10426 10425 10426 10422 10418 10423 10425 10422 10427 10429 10423 10420 10420 10418 10420 10422 10423 10424 10424 10425 10426 10427 10427 10427 10428
10376 10378 10379 10380 10381 10382 10383 10382 10382 10383 10384 10385 10387 10388 10388 10388 10389 10390 10390 10390 10391 10392 10391 10392 10393 10393 10393 10393 10393 10395 10395 10395 10396 10397 10397 10396 10396 10398 10400 10400 10400 10402 10403 10402 10403 10405 10405 10405 10406 10406 10408 10413 10413 10410 10410 10409 10408 10411 10416 10418 10418 10417 10417 10417 10418 10418 10414 10412 10413 10414 10418 10424 10421 10414 10413 10413 10411 10411 10413 10413 10414 10415 10416 10417 10418 10419 10418 10419
10367 10369 10370 10371 10373 10373 10374 10374 10374 10375 10377 10379 10380 10380 10381 10381 10382 10383 10384 10383 10384 10386 10385 10385 10387 10387 10386 10386 10388 10390 10389 10388 10389 10390 10390 10390 10390 10391 10393 10393 10393 10395 10396 10394 10394 10397 10396 10397 10398 10397 10400 10405 10404 10400 10401 10400 10400 10406 10410 10410 10409 10407 10408 10408 10410 10410 10408 10405 10405 10407 10413 10418 10413 10406 10406 10406 10404 10404 10405 10405 10404 10404 10406 10407 10408 10409 10409 10410
10358 10360 10361 10362 10364 10365 10366 10366 10366 10366 10370 10372 10371 10372 10373 10374 10375 10376 10376 10376 10378 10379 10378 10378 10380 10380 10379 10381 10384 10383 10381 10382 10383 10383 10383 10383 10383 10384 10385 10386 10386 10386 10388 10387 10387 10389 10389 10389 10390 10388 10392 10397 10394 10391 10391 10392 10396 10402 10403 10400 10398 10397 10400 10401 10401 10402 10400 10397 10398 10401 10406 10406 10403 10401 10402 10400 10398 10396 10396 10398 10396 10393 10394 10397 10398 10398 10399 10399